Date String (YYYY-MM-DD hh:mm:ss) UTC,Instrument flags,absolute air pressure of the measurement (hPa),sample flow rate (lpm),inlet stack bypass flow (lpm),air temperature of the measurement (°C),ambient temperature measured by the external sensor (°C),aerosol sample conditioner tube jacket temperature (°C),OPC LED temperature (°C),internal box temperature (°C),relative humidity of the measurement (%),span deviation,mass concentration of particles derived from Lorenz-Mie calculation of OPC scattering (μg/m³),mass concentration of particles derived from Lorenz-Mie calculation of OPC scattering (μg/m³),mass concentration of particles derived from Lorenz-Mie calculation of OPC scattering (μg/m³)
DateTimeUTC,F1_M11,P_M11,Q1_M11,Q2_M11,T1_M11,T2_M11,T3_M11,T4_M11,T5_M11,U1_M11,ZSPAN_M11,X2_M11,X0_M11,X1_M11
2023-11-01 13:00:00,SystemResetWarning,0832.6,5.00,000.00,021.5,020.4,000.0,029.9,022.8,11.1,0000.0,0002.17,0004.70,0001.82
2023-11-01 13:01:00,SystemResetWarning,0832.6,5.01,000.00,021.5,020.4,000.0,029.9,022.8,11.1,0000.0,0002.17,0004.65,0001.82
2023-11-01 13:02:00,SystemResetWarning,0832.5,5.00,000.00,021.5,020.4,000.0,029.9,022.8,11.1,0000.0,0002.17,0004.60,0001.84
2023-11-01 13:03:00,SystemResetWarning,0832.5,5.00,000.00,021.5,020.4,000.0,029.9,022.8,11.0,0000.0,0002.20,0004.65,0001.86
2023-11-01 13:04:00,SystemResetWarning,0832.6,5.00,000.00,021.5,020.4,000.0,029.9,022.8,11.0,0000.0,0002.21,0003.79,0001.86
2023-11-01 13:05:00,SystemResetWarning,0832.6,4.99,000.00,021.5,020.3,000.0,029.9,022.8,10.8,0000.0,0002.17,0003.16,0001.84
2023-11-01 13:06:00,SystemResetWarning,0832.5,4.99,000.00,021.4,020.3,000.0,029.9,022.8,10.8,0000.0,0002.14,0003.10,0001.84
2023-11-01 13:07:00,SystemResetWarning,0832.5,5.00,000.00,021.5,020.3,000.0,029.9,022.8,10.9,0000.0,0002.13,0003.90,0001.84
2023-11-01 13:08:00,SystemResetWarning,0832.5,5.01,000.00,021.4,020.4,000.0,029.9,022.8,10.9,0000.0,0002.09,0004.73,0001.82
2023-11-01 13:09:00,SystemResetWarning,0832.5,5.01,000.00,021.4,020.4,000.0,029.9,022.8,11.0,0000.0,0002.04,0004.63,0001.81
2023-11-01 13:10:00,SystemResetWarning,0832.5,5.00,000.00,021.4,020.4,000.0,029.9,022.8,11.3,0000.0,0002.02,0004.51,0001.81
2023-11-01 13:11:00,SystemResetWarning,0832.5,5.00,000.00,021.4,020.4,000.0,029.9,022.8,11.4,0000.0,0002.03,0004.28,0001.82
2023-11-01 13:12:00,SystemResetWarning,0832.5,5.00,000.00,021.4,020.3,000.0,029.9,022.8,11.4,0000.0,0002.04,0004.25,0001.84
2023-11-01 13:13:00,SystemResetWarning,0832.5,5.00,000.00,021.4,020.3,000.0,029.8,022.7,11.3,0000.0,0002.04,0004.23,0001.86
2023-11-01 13:14:00,SystemResetWarning,0832.5,5.00,000.00,021.4,020.3,000.0,029.8,022.7,11.5,0000.0,0002.07,0004.39,0001.89
2023-11-01 13:15:00,SystemResetWarning,0832.5,5.00,000.00,021.4,020.3,000.0,029.8,022.7,11.9,0000.0,0002.08,0004.38,0001.92
2023-11-01 13:16:00,SystemResetWarning,0832.4,5.00,000.00,021.4,020.2,000.0,029.8,022.7,11.7,0000.0,0002.10,0004.36,0001.96
2023-11-01 13:17:00,SystemResetWarning,0832.4,4.99,000.00,021.4,020.2,000.0,029.8,022.7,11.7,0000.0,0002.12,0004.36,0001.99
2023-11-01 13:18:00,SystemResetWarning,0832.3,4.99,000.00,021.4,020.2,000.0,029.8,022.7,11.4,0000.0,0002.16,0003.71,0002.01
2023-11-01 13:19:00,SystemResetWarning,0832.3,5.00,000.00,021.4,020.2,000.0,029.8,022.7,11.4,0000.0,0002.17,0002.62,0002.02
2023-11-01 13:20:00,SystemResetWarning,0832.3,5.01,000.00,021.3,020.3,000.0,029.8,022.7,11.4,0000.0,0002.19,0002.69,0002.01
2023-11-01 13:21:00,SystemResetWarning,0832.3,5.00,000.00,021.3,020.2,000.0,029.8,022.7,11.1,0000.0,0002.19,0002.73,0001.99
2023-11-01 13:22:00,SystemResetWarning,0832.3,5.00,000.00,021.3,020.2,000.0,029.8,022.7,11.0,0000.0,0002.19,0002.74,0001.99
2023-11-01 13:23:00,SystemResetWarning,0832.3,5.00,000.00,021.3,020.3,000.0,029.8,022.7,11.1,0000.0,0002.23,0002.80,0002.02
2023-11-01 13:24:00,SystemResetWarning,0832.3,5.00,000.00,021.3,020.3,000.0,029.8,022.7,11.1,0000.0,0002.26,0002.88,0002.04
2023-11-01 13:25:00,SystemResetWarning,0832.3,5.00,000.00,021.3,020.3,000.0,029.8,022.7,11.1,0000.0,0002.23,0002.80,0002.00
2023-11-01 13:26:00,SystemResetWarning,0832.3,5.00,000.00,021.4,020.3,000.0,029.8,022.7,11.1,0000.0,0002.22,0002.78,0001.98
2023-11-01 13:27:00,SystemResetWarning,0832.3,5.00,000.00,021.3,020.3,000.0,029.8,022.7,11.1,0000.0,0002.23,0002.82,0001.97
2023-11-01 13:28:00,SystemResetWarning,0832.3,5.00,000.00,021.3,020.3,000.0,029.8,022.8,11.3,0000.0,0002.24,0002.88,0001.98
2023-11-01 13:29:00,SystemResetWarning,0832.3,5.00,000.00,021.3,020.3,000.0,029.8,022.8,11.8,0000.0,0002.24,0002.90,0001.96
2023-11-01 13:30:00,SystemResetWarning,0832.3,4.99,000.00,021.3,020.4,000.0,029.8,022.8,11.9,0000.0,0002.23,0002.96,0001.93
2023-11-01 13:31:00,SystemResetWarning,0832.3,4.99,000.00,021.3,020.4,000.0,029.8,022.8,12.5,0000.0,0002.19,0002.90,0001.91
2023-11-01 13:32:00,SystemResetWarning,0832.2,5.00,000.00,021.3,020.4,000.0,029.8,022.7,12.4,0000.0,0002.20,0002.89,0001.93
2023-11-01 13:33:00,SystemResetWarning,0832.2,4.99,000.00,021.3,020.4,000.0,029.8,022.8,12.1,0000.0,0002.23,0002.95,0001.94
2023-11-01 13:34:00,SystemResetWarning,0832.2,5.00,000.00,021.4,020.4,000.0,029.8,022.8,11.8,0000.0,0002.20,0002.90,0001.92
2023-11-01 13:35:00,SystemResetWarning,0832.1,4.99,000.00,021.4,020.5,000.0,029.8,022.8,11.9,0000.0,0002.17,0002.89,0001.88
2023-11-01 13:36:00,SystemResetWarning,0832.2,5.00,000.00,021.4,020.5,000.0,029.8,022.8,12.1,0000.0,0002.19,0002.87,0001.89
2023-11-01 13:37:00,SystemResetWarning,0832.2,5.00,000.00,021.4,020.5,000.0,029.8,022.8,11.7,0000.0,0002.18,0002.81,0001.89
2023-11-01 13:38:00,SystemResetWarning,0832.2,5.00,000.00,021.4,020.5,000.0,029.8,022.8,11.5,0000.0,0002.15,0002.78,0001.86
2023-11-01 13:39:00,SystemResetWarning,0832.2,5.01,000.00,021.4,020.5,000.0,029.8,022.8,11.5,0000.0,0002.13,0002.77,0001.84
2023-11-01 13:40:00,SystemResetWarning,0832.2,5.00,000.00,021.4,020.5,000.0,029.8,022.8,11.5,0000.0,0002.09,0002.72,0001.82
2023-11-01 13:41:00,SystemResetWarning,0832.2,5.01,000.00,021.4,020.5,000.0,029.8,022.8,11.6,0000.0,0002.06,0002.65,0001.81
2023-11-01 13:42:00,SystemResetWarning,0832.2,5.00,000.00,021.4,020.5,000.0,029.8,022.8,11.6,0000.0,0002.07,0002.67,0001.80
2023-11-01 13:43:00,SystemResetWarning,0832.3,5.00,000.00,021.4,020.5,000.0,029.8,022.8,11.5,0000.0,0002.05,0002.62,0001.79
2023-11-01 13:44:00,SystemResetWarning,0832.3,5.00,000.00,021.4,020.5,000.0,029.8,022.8,12.2,0000.0,0001.97,0002.49,0001.75
2023-11-01 13:45:00,SystemResetWarning,0832.5,5.00,000.00,021.4,020.5,000.0,029.8,022.8,12.8,0000.0,0001.96,0002.49,0001.72
2023-11-01 13:46:00,SystemResetWarning,0832.4,4.99,000.00,021.4,020.5,000.0,029.8,022.8,13.1,0000.0,0001.92,0002.42,0001.70
2023-11-01 13:47:00,SystemResetWarning,0832.4,4.99,000.00,021.4,020.5,000.0,029.8,022.8,12.6,0000.0,0001.85,0002.28,0001.67
2023-11-01 13:48:00,SystemResetWarning,0832.4,5.00,000.00,021.4,020.6,000.0,029.8,022.9,12.2,0000.0,0001.84,0002.28,0001.67
2023-11-01 13:49:00,SystemResetWarning,0832.4,5.00,000.00,021.4,020.6,000.0,029.8,022.9,12.0,0000.0,0001.83,0002.23,0001.67
2023-11-01 13:50:00,SystemResetWarning,0832.4,5.00,000.00,021.4,020.6,000.0,029.8,022.9,11.8,0000.0,0001.79,0002.15,0001.65
2023-11-01 13:51:00,SystemResetWarning,0832.4,5.00,000.00,021.5,020.6,000.0,029.8,022.9,11.7,0000.0,0001.78,0002.56,0001.63
2023-11-01 13:52:00,SystemResetWarning,0832.4,5.00,000.00,021.5,020.6,000.0,029.8,022.9,11.7,0000.0,0001.80,0002.80,0001.63
2023-11-01 13:53:00,SystemResetWarning,0832.4,5.00,000.00,021.5,020.6,000.0,029.8,022.9,11.7,0000.0,0001.81,0002.81,0001.64
2023-11-01 13:54:00,SystemResetWarning,0832.4,5.00,000.00,021.5,020.6,000.0,029.8,022.9,11.7,0000.0,0001.82,0002.84,0001.65
2023-11-01 13:55:00,SystemResetWarning,0832.4,4.99,000.00,021.5,020.7,000.0,029.8,022.9,11.7,0000.0,0001.85,0002.88,0001.66
2023-11-01 13:56:00,SystemResetWarning,0832.4,5.00,000.00,021.5,020.7,000.0,029.8,022.9,11.6,0000.0,0001.82,0002.80,0001.66
2023-11-01 13:57:00,SystemResetWarning,0832.5,5.00,000.00,021.5,020.7,000.0,029.8,022.9,11.6,0000.0,0001.83,0002.84,0001.66
2023-11-01 13:58:00,SystemResetWarning,0832.5,5.01,000.00,021.5,020.7,000.0,029.9,022.9,11.6,0000.0,0001.86,0002.92,0001.66
2023-11-01 13:59:00,SystemResetWarning,0832.5,5.00,000.00,021.5,020.7,000.0,029.9,022.9,11.7,0000.0,0001.85,0002.92,0001.65
